Weather WX

World > North America > United States > North Carolina

Red Springs, North Carolina Regional Weather

Lat: 34.81N, Lon: 79.18W
Wx Zone: NCZ087
Warning FLW WEATHER ALERT - (More Info. Click Here) Warning
Feedback

Red Springs, NC Regional Weather

Expires:201907170300;;758271
ASUS42 KRAH 170210
RWRRAH
NORTH CAROLINA WEATHER ROUNDUP
NATIONAL WEATHER SERVICE RALEIGH NC
1000 PM EDT TUE JUL 16 2019

NOTE: "FAIR" INDICATES FEW OR NO CLOUDS BELOW 12,000 FEET WITH NO
SIGNIFICANT WEATHER AND/OR OBSTRUCTIONS TO VISIBILITY.


NCZ078-087-090-091-093-098-101-170300-
SOUTHEASTERN NORTH CAROLINA
  
CITY           SKY/WX    TMP DP  RH WIND       PRES   REMARKS
GOLDSBORO      FAIR      79  73  79 SE3       30.07R                  
KINSTON        FAIR      78  76  94 CALM      30.09S                  
KENANSVILLE    FAIR      77  73  88 CALM      30.10R                  
NEW BERN       LGT RAIN  80  78  94 CALM      30.10R                  
CHERRY POINT   FAIR      83  75  77 S5        30.10R                  
BEAUFORT       FAIR      84  78  82 SW8       30.10R HX  95           
JACKSONVILLE   FAIR      82  77  84 S3        30.10R                  
WILMINGTON     FAIR      83  75  77 S3        30.10R                  
$$

  

SKY/WX - Weather  TMP - Temperature  DP - Dew Point  RH - Relative Humidity
WIND - Wind Direction/Speed PRES - Barometric Pressure VSB - Visibility
WCI - Wind Chill Index E13G22 Wind - East Wind 13 mph/Gusts of 22 mph